Regional Weather Roundup
Issued by NWS

Home | Current Version | Previous Version | Text Only | Print | Product List | Glossary Off
Versions: 1 2 3 4 5 6 7 8 9 10 11 12 13 14 15 16 17 18 19 20 21 22 23 24 25 26 27 28 29 30 31 32 33 34 35 36 37 38 39 40 41 42 43 44 45 46 47 48 49 50

000
ASUS44 KMEG 040800
RWRTN
TENNESSEE HOURLY STATE WEATHER ROUNDUP
NATIONAL WEATHER SERVICE MEMPHIS TN
300 AM CDT FRI SEP 04 2015

TNZ002-004-019-021-049-052-054-088>092-040900-
WEST TENNESSEE

CITY           SKY/WX    TMP DP  RH WIND       PRES   REMARKS
MEMPHIS INTL   CLEAR     76  70  82 CALM      29.96S
NWS MEMPHIS      N/A     72 N/A N/A MISG        N/A
JACKSON        FAIR      71  69  93 S5        29.96S FOG
DYERSBURG      CLEAR     73  70  88 NE5       29.97S
UNION CITY       N/A    N/A N/A N/A CALM      29.96S VSB 0
PARIS          CLEAR     66  64  94 CALM      29.99R
LEXINGTON      CLEAR     70  70 100 CALM      29.97R
$$

TNZ008-025-027-028-033-062-065-066-040900-
NORTH MIDDLE TENNESSEE

CITY           SKY/WX    TMP DP  RH WIND       PRES   REMARKS
NASHVILLE      CLEAR     75  68  78 CALM      29.99R
CLARKSVILLE    CLEAR     68  67  96 CALM      29.98R FOG
COOKEVILLE     CLEAR     64  64 100 CALM      30.00S
CROSSVILLE     CLEAR     67  64  90 CALM      30.06R FOG
$$

TNZ061-075-076-078-094-096-097-040900-
SOUTH MIDDLE TENNESSEE

CITY           SKY/WX    TMP DP  RH WIND       PRES   REMARKS
FAYETTEVILLE   CLEAR     70  68  94 CALM      30.00R
TULLAHOMA      CLEAR     68  66  94 CALM      30.02R
WINCHESTER     CLEAR     66  66 100 CALM      30.01R
COLUMBIA       CLEAR    N/A N/A N/A CALM      29.97R
SHELBYVILLE    CLEAR     70  70 100 CALM      30.00R
$$

TNZ017-018-042-046-047-040900-
NORTHEAST TENNESSEE

CITY           SKY/WX    TMP DP  RH WIND       PRES   REMARKS
TRI CITIES     PTCLDY    65  63  93 CALM      30.03R
ELIZABETHTON   SUNNY     63  63 100 CALM      30.05R FOG
$$

TNZ012-013-036-069-073-074-040900-
CENTRAL EAST TENNESSEE

CITY           SKY/WX    TMP DP  RH WIND       PRES   REMARKS
KNOXVILLE      CLEAR     69  69 100 CALM      29.99R
OAK RIDGE      CLEAR     70  67  90 CALM      30.01R
GATLINBURG     SUNNY     66  64  94 CALM      30.00R
$$

TNZ083-085-099-040900-
SOUTHEAST TENNESSEE

CITY           SKY/WX    TMP DP  RH WIND       PRES   REMARKS
CHATTANOOGA    CLEAR     72  69  90 CALM      29.98F
$$

SKY/WX REPORTED AS FAIR MEANS FEW OR NO CLOUDS BELOW
12 THOUSAND FEET.



USA.gov is the U.S. government's official web portal to all federal, state and local government web resources and services.